Regional Weather Roundup
Issued by NWS Wakefield, VA

Home | Current Version | Previous Version | Graphics & Text | Print | Product List | Glossary On
Versions: 1 2 3 4 5 6 7 8 9 10 11 12 13 14 15 16 17 18 19 20 21 22 23 24 25 26 27
000
ASUS41 KAKQ 271515
RWRAKQ

REGIONAL WEATHER ROUNDUP
NATIONAL WEATHER SERVICE WAKEFIELD VA
1100 AM EDT TUE JUN 27 2017

Note: "fair" indicates few or no clouds below 12,000 feet with no
significant weather and/or obstructions to visibility. * = Denotes
station may not report precipitation (e.g., rain,snow,etc.),
thunder or fog.

VAZ042-051-052>054-056-271600-
NORTHERN VIRGINIA

CITY           SKY/WX    TMP DP  RH WIND       PRES   REMARKS
WASH NATIONAL  MOSUNNY   78  51  38 N9        30.04S
DULLES         MOSUNNY   74  50  42 VRB6      30.04S
FORT BELVOIR   SUNNY     78  50  37 NW10      30.03S
QUANTICO       MOSUNNY   76  54  46 SE6       30.04S
FREDERICKSBRG* SUNNY     76  55  47 S3        30.03F
STAFFORD*      SUNNY     76  49  39 W6        30.08S
WARRENTON      MOSUNNY   77  49  36 W3        30.04S
CULPEPER*      MOSUNNY   76  53  44 NW6       30.04F
MANASSAS*      SUNNY     76  52  43 VRB5      30.04S
LEESBURG*      SUNNY     77  55  47 NW8G16    30.05S
WINCHESTER     MOSUNNY   72  50  46 SW7G16    30.04F
FRONT ROYAL*   MOSUNNY   72  52  49 CALM      30.04S
LURAY*         MOSUNNY   72  52  49 S5        30.05S
$$

VAZ048-049-060>072-079>083-271600-
CENTRAL AND SOUTH CENTRAL VIRGINIA

CITY           SKY/WX    TMP DP  RH WIND       PRES   REMARKS
RICHMOND       MOSUNNY   76  54  46 CALM      30.05S
CHESTERFIELD*  FAIR      77  53  43 N3        30.06S
PETERSBURG*    PTSUNNY   75  48  37 CALM      30.06F
HANOVER        SUNNY     76  55  48 VRB3      30.06S
TAPPAHANNOCK*  SUNNY     76  48  36 N3        30.05S
QUINTON*       FAIR      75  56  53 CALM      30.05S
CHARLOTTSVILLE CLOUDY    76  52  43 VRB5      30.05F
GORDONSVILLE*  SUNNY     76  52  42 S7        30.04F
ORANGE*        SUNNY     77  50  38 SW7       30.04F
LOUISA*        MOSUNNY   79  54  41 W5        30.05S
BUMPASS*       FAIR      74  58  57 S6        30.05F
FARMVILLE*     SUNNY     77  44  30 CALM      30.06S
CREWE*         FAIR      74  47  37 N3        30.07S
FORT PICKETT*  FAIR     N/A N/A N/A N7        30.07S
CHASE CITY*    FAIR      74  53  48 N5        30.08S
CLARKSVILLE*   FAIR      73  54  49 N7        30.07F
SOUTH HILL*    SUNNY     74  55  52 NE7       30.12F
LAWRENCEVILLE* FAIR      74  56  53 CALM      30.06F
EMPORIA*       PTSUNNY   75  57  53 N6        30.07S
$$

VAZ088>098-271600-
SOUTHEAST VIRGINIA

CITY           SKY/WX    TMP DP  RH WIND       PRES   REMARKS
NORFOLK        PTSUNNY   78  62  57 N12       30.03R
VIRGINIA BEACH CLOUDY    79  61  53 NW9       30.02R
NORFOLK NAVAL  CLOUDY    79  61  53 N14       30.05R
WEST POINT*    PTSUNNY   76  53  43 NE6       30.06S
SALUDA*        PTSUNNY   76  55  49 N7        30.05R
NEWPORT NEWS   PTSUNNY   75  58  55 N6        30.05R
LANGLEY AFB    PTSUNNY   72  61  68 S10       30.01S
FORT EUSTIS    CLOUDY    78  57  49 N6        30.02R
WILLIAMSBURG*  PTSUNNY   77  61  57 N3        30.06R
HR EXEC AP*    FAIR      79  63  57 NW5       30.02R
FRANKLIN*      PTSUNNY   75  61  60 N12       30.05R
US460-WAKEFLD  PTSUNNY   76  58  53 NE5       30.05R
$$

VAZ020-022-025-037-045-271600-
WEST CENTRAL AND SOUTHWEST VIRGINIA

CITY           SKY/WX    TMP DP  RH WIND       PRES   REMARKS
STAUNTON*      SUNNY     71  49  45 W6        30.08F
WAYNESBORO*    CLOUDY    69  52  54 CALM      30.08S
HOT SPRINGS VA SUNNY     61  36  39 W15G24    30.13F
LYNCHBURG      CLOUDY    72  50  45 VRB5      30.09S
DANVILLE       SUNNY     75  57  53 N8        30.09S
SOUTH BOSTON*  FAIR      75  54  48 CALM      30.08S
MARTINSVILLE   SUNNY     74  50  42 NW10      30.13S
ROANOKE        MOSUNNY   72  48  42 NW7       30.11F
BLACKSBURG     SUNNY     65  48  53 W6        30.16S
DUBLIN*        MOSUNNY   70  40  33 NW12G21   30.15S
MARION*        SUNNY     67  46  45 NW12      30.19R
HILLSVILLE*    MOSUNNY   65  42  43 NW9       30.15S
RICHLANDS*     FAIR      64   8  11 N6        30.18F
WISE*          SUNNY     64  46  52 CALM      30.21R
ABINGDON*      SUNNY     68  48  48 N7        30.17S
$$

MDZ021>025-VAZ099-100-271600-
SOUTHERN MARYLAND AND THE DELMARVA PENINSULA

CITY           SKY/WX    TMP DP  RH WIND       PRES   REMARKS
PATUXENT RIVER PTSUNNY   76  54  46 VRB3      30.03F
BAY BRIDGE APT SUNNY     75  57  53 W5        30.02S
LEONARDTOWN    MOSUNNY   73  52  46 CALM      30.05R
DOVER          MOSUNNY   73  61  68 W7        30.00F
GEORGETOWN     SUNNY     77  53  43 N6        30.02F
EASTON         MOSUNNY   75  57  53 CALM      30.05F
CAMBRIDGE      SUNNY     75  54  46 N7        30.02F
SALISBURY      CLOUDY    75  55  49 N6        30.01F
OCEAN CITY     PTSUNNY   77  57  50 NW8       30.03R
WALLOPS ISLAND PTSUNNY   77  58  51 N8        30.02F
ACCOMACK*      PTSUNNY   78  56  48 N7        30.03S
$$

NCZ012>017-030>032-271600-
NORTH CENTRAL AND EASTERN NORTH CAROLINA

CITY           SKY/WX    TMP DP  RH WIND       PRES   REMARKS
ROANOKE RAPIDS FAIR      77  55  47 N8        30.06R
RALEIGH        MOSUNNY   76  54  46 NE8       30.08S
ELIZABETH CITY MOSUNNY   82  65  56 W5        30.02S
AHOSKIE*         N/A     74  63  69 NW3       30.05R
EDENTON*       MOSUNNY   81  65  58 CALM      30.04R
CURRITUCK*     MOSUNNY   81  62  50 SW3       30.03R
KILL DEVIL HLS MOSUNNY   80  66  62 NW3       30.01S
MANTEO         MOSUNNY   80  66  63 CALM      30.03S
CAPE HATTERAS  NOT AVBL
TARBORO*       NOT AVBL
GOLDSBORO      NOT AVBL
WASHINGTON     CLOUDY   N/A N/A N/A CALM      30.04S
GREENVILLE     MOSUNNY   81  63  54 NW6       30.06R
NEW BERN       CLOUDY    82  64  54 W5        30.05R
WILMINGTON     SUNNY     83  63  50 W7        30.03S
$$

VAZ048-271600-
ELSEWHERE

CITY           SKY/WX    TMP DP  RH WIND       PRES   REMARKS
HARRISBURG PA  MOSUNNY   71  53  52 NW10      30.01S
BALTIMORE      PTSUNNY   76  51  41 VRB5      30.01F
ANNAPOLIS      SUNNY     73  55  53 NW8       30.02S
ANDREWS AFB    MOSUNNY   77  50  38 W7        30.02S
PHILADELPHIA   MOSUNNY   71  60  68 S3        30.01F
HENDERSON NC   MOSUNNY   72  54  53 N6        30.08S
GREENSBORO     MOSUNNY   76  55  48 NE6       30.09F
ROCKY MOUNT    PTSUNNY   78  56  46 N12       30.06R
$$

VAZ100-271600-
MARINE

STATION/POSITION TIME  TEMP    WIND        PRES    WAVE   SWELL
                       AIR SEA DIR/SP/G            HT/PER HT/PER
                 (UTC) (F)     (DEG/KT/KT) (MB)    (FT/S) (FT/S)
BRANDYWINE LGT   1448          290/  6/  8   N/A
CAPE MAY NJ      1448   72 66  300/  6/  7 1015.9R
LEWES DE         1448   70 68  330/  5/  6 1016.3S
15NM E FENWICK I 1350   68 68  330/ 12/ 14 1016.7    1/ 6   2/ 6
OCEAN-CITY-INLET 1448   72 67   30/  5/  7 1016.9R
WACHAPREAGUE VA  1448   78 76  290/  3/  7 1016.5R
THOMAS POINT MD  1500   72 77  300/  2/  3   N/A
GOOSES REEF MD   1450   73     350/  6/  8 1017.5F
COVE POINT MD    1448   72      30/  5/  8 1017.5F
SOLOMONS ISLAND  1448          350/  4/  7   N/A
BISHOPS HEAD MD  1448   74 77   30/  5/  8 1016.6F
PINEY POINT MD   1448          330/  6/  7   N/A
POTOMAC MD       1450   74      30/  8/ 10 1016.2F
CAMBRIDGE MD     1436   75 81              1017.2F
LEWISETTA VA     1448   74 79   10/  4/  6 1017.1R
RAPPAHANNOCK LGT 1448          350/ 15/ 17 1017.4S
STINGRAY PT      1450   75      30/ 10/ 12 1017.3R
YORK RVR RNG VA  1448   73      20/ 10/ 13 1017.5R
YORKTOWN VA      1448   73 78  340/  7/  8 1017.1R
JAMESTOWN VA     1450   74     340/  6/ 10   N/A
DOMINION TERM VA 1448   74      10/  9/ 12 1017.3R
KIPTOPEKE VA     1448      74  360/  9/ 12   N/A
CHES BAY BRIDGE  1448   74 73   20/ 16/ 17 1016.7R
CAPE HENRY VA    1448   74     350/ 13/ 14   N/A
WILLOUBY STN VA  1448   73      10/ 13/ 15 1017.0R
S CRANEY ISL VA  1448   76      30/ 13/ 16 1016.7R
CAPE HENRY BUOY  1430      72                N/A     2/ 8
1ST LANDING BUOY 1450   75                 1016.6R
CAPE CHARLES BUO 1451      67                N/A     1/ 8
64NM E OF VA BCH 1450   74 74  200/  4/  4 1017.0S   1/ 8   2/ 8
DUCK PIER NC     1448   81 70   90/  3/  4 1016.2S
44100 DUCK FRF   1435      73                N/A     1/ 8
OREGON INLET NC  1448          220/  3/  4   N/A
HATTERAS NC      1448   79 77  320/  5/  6 1016.9R
DIAMOND SHLS NC  1450   78 81  350/  8/ 10 1016.6R   2/ 7   2/ 7
CAPE LOOKOUT NC  1400   78     320/  5/  7 1016.4S
$$




USA.gov is the U.S. government's official web portal to all federal, state and local government web resources and services.